Weather History for Frenchville, ME

Change the Weather History Date:

Sunday, January 20, 2013

  Actual Average Record
Temperature  
Mean Temperature 15 °F 8 °F  
Max Temperature 30 °F 17 °F 33 °F (1999)
Min Temperature -1 °F 0 °F -14 °F (2008)
Degree Days  
Heating Degree Days 50    
Month to date heating degree days 1044  
Since 1 July heating degree days 4455  
Cooling Degree Days 0    
Month to date cooling degree days 0  
Year to date cooling degree days 0  
Moisture  
Dew Point 13 °F    
Average Humidity 84    
Maximum Humidity 100    
Minimum Humidity 63    
Precipitation  
Precipitation 0.14 in 0.03 in 0.14 in (2013)
Month to date precipitation 0.21 1.42  
Year to date precipitation 0.21 1.42  
Snow  
Snow 0.00 in - - ()
Month to date snowfall 0.0  
Snow Depth 0.00 in    
Sea Level Pressure  
Sea Level Pressure 29.47 in    
Wind  
Wind Speed 16 mph (SSE)    
Max Wind Speed 33 mph    
Max Gust Speed 46 mph    
Visibility 3 miles    
Events Fog , Snow    
T = Trace of Precipitation, MM = Missing Value Source: NWS Daily Summary

Daily Weather History Graph

Daily Weather History Graph

Search for Another Location

Airport:

Trip Planner

Search our weather history database for the weather conditions in past years. The results will help you decide how hot, cold, wet, or windy it might be!

Date:

Astronomy

Jan. 20, 2013 Rise Set
Actual Time 7:11 AM EST 4:17 PM EST
Civil Twilight 6:37 AM EST 4:51 PM EST
Nautical Twilight 6:00 AM EST 5:29 PM EST
Astronomical Twilight 5:23 AM EST 6:05 PM EST
Moon 11:17 AM EST (1/20) 1:38 AM EST (1/20)
Length of Visible Light 10h 13m
Length of Day
9h 05m
Waxing Gibbous, 66% of the Moon is Illuminated
Jan 20
Waxing Gibbous
Jan 26
Full
Feb 3
Last Quarter
Feb 10
New
Feb 17
First Quarter

Hourly Weather History & Observations

Time (EST) Temp. Windchill Dew Point Humidity Pressure Visibility Wind Dir Wind Speed Gust Speed Precip Events Conditions
12:34 AM 12.2 °F 0.7 °F 8.6 °F 85% 29.88 in 1.8 mi ENE 8.1 mph - 0.00 in Snow Light Snow
12:53 AM 12.0 °F -1.3 °F 8.1 °F 84% 29.92 in 2.0 mi ENE 10.4 mph - 0.00 in Snow Light Snow
1:12 AM 12.2 °F 0.7 °F 8.6 °F 85% 29.85 in 1.8 mi ENE 8.1 mph - 0.01 in Snow Light Snow
1:19 AM 12.2 °F 0.7 °F 8.6 °F 85% 29.85 in 1.5 mi ENE 8.1 mph - 0.01 in Snow Light Snow
1:53 AM 12.0 °F -1.3 °F 8.1 °F 84% 29.90 in 1.5 mi East 10.4 mph 18.4 mph 0.01 in Snow Light Snow
2:08 AM 10.4 °F -4.1 °F 8.6 °F 92% 29.84 in 1.2 mi East 11.5 mph 19.6 mph 0.00 in Snow Light Snow
2:44 AM 10.4 °F -5.4 °F 8.6 °F 92% 29.80 in 1.5 mi East 13.8 mph 20.7 mph 0.01 in Snow Light Snow
2:53 AM 10.9 °F -4.7 °F 8.1 °F 88% 29.85 in 1.2 mi East 13.8 mph 20.7 mph 0.01 in Snow Light Snow
3:19 AM 12.2 °F -3.1 °F 8.6 °F 85% 29.77 in 1.5 mi East 13.8 mph 20.7 mph 0.00 in Snow Light Snow
3:25 AM 12.2 °F -3.1 °F 8.6 °F 85% 29.77 in 2.0 mi East 13.8 mph 18.4 mph 0.00 in Snow Light Snow
3:36 AM 12.2 °F -2.5 °F 8.6 °F 85% 29.76 in 6.0 mi East 12.7 mph 18.4 mph 0.00 in Snow Light Snow
3:53 AM 12.0 °F -2.7 °F 10.0 °F 92% 29.80 in 7.0 mi East 12.7 mph 18.4 mph 0.00 in Snow Light Snow
4:04 AM 12.2 °F -1.8 °F 10.4 °F 92% 29.75 in 3.0 mi East 11.5 mph - 0.00 in Snow Light Snow
4:10 AM 14.0 °F -0.8 °F 10.4 °F 86% 29.74 in 1.8 mi ESE 13.8 mph - 0.00 in Snow Light Snow
4:16 AM 14.0 °F -1.4 °F 10.4 °F 86% 29.74 in 1.2 mi ESE 15.0 mph - 0.00 in Snow Light Snow
4:31 AM 14.0 °F -2.5 °F 10.4 °F 86% 29.74 in 0.8 mi ESE 17.3 mph 24.2 mph 0.00 in Snow Light Snow
4:53 AM 14.0 °F -1.4 °F 10.9 °F 88% 29.78 in 0.5 mi ESE 15.0 mph - 0.00 in Fog , Snow Snow
5:38 AM 14.0 °F -0.2 °F 10.4 °F 86% 29.68 in 0.8 mi ESE 12.7 mph - 0.01 in Snow Light Snow
5:50 AM 14.0 °F -1.4 °F 10.4 °F 86% 29.67 in 1.0 mi ESE 15.0 mph - 0.01 in Snow Light Snow
5:53 AM 14.0 °F -0.8 °F 10.9 °F 88% 29.72 in 1.0 mi ESE 13.8 mph - 0.01 in Snow Light Snow
6:09 AM 15.8 °F 0.3 °F 10.4 °F 79% 29.65 in 1.5 mi ESE 16.1 mph - 0.00 in Snow Light Snow
6:16 AM 15.8 °F 1.4 °F 10.4 °F 79% 29.65 in 2.0 mi ESE 13.8 mph 21.9 mph 0.00 in Snow Light Snow
6:34 AM 15.8 °F 2.7 °F 12.2 °F 86% 29.63 in 4.0 mi ESE 11.5 mph 20.7 mph 0.00 in Snow Light Snow
6:53 AM 15.1 °F -0.6 °F 12.0 °F 88% 29.66 in 4.0 mi ESE 16.1 mph 24.2 mph 0.00 in Snow Light Snow
7:29 AM 15.8 °F 0.3 °F 12.2 °F 86% 29.55 in 2.0 mi ESE 16.1 mph 21.9 mph 0.00 in Snow Light Snow
7:37 AM 15.8 °F 1.4 °F 12.2 °F 86% 29.55 in 1.5 mi ESE 13.8 mph 21.9 mph 0.00 in Snow Light Snow
7:44 AM 15.8 °F 0.9 °F 12.2 °F 86% 29.54 in 2.0 mi ESE 15.0 mph - 0.00 in Snow Light Snow
7:53 AM 16.0 °F 0.6 °F 12.9 °F 88% 29.58 in 3.0 mi ESE 16.1 mph 21.9 mph 0.00 in Snow Light Snow
8:06 AM 15.8 °F 0.9 °F 12.2 °F 86% 29.52 in 2.5 mi ESE 15.0 mph 20.7 mph 0.00 in Snow Light Snow
8:33 AM 17.6 °F 2.7 °F 14.0 °F 86% 29.48 in 3.0 mi ESE 16.1 mph 20.7 mph 0.00 in Snow Light Snow
8:53 AM 17.1 °F 2.0 °F 14.0 °F 88% 29.50 in 10.0 mi ESE 16.1 mph 23.0 mph 0.00 in   Overcast
9:33 AM 17.6 °F 3.7 °F 15.8 °F 93% 29.42 in 1.8 mi ESE 13.8 mph - 0.00 in Snow Light Snow
9:35 AM 17.6 °F 3.2 °F 15.8 °F 93% 29.42 in 1.2 mi ESE 15.0 mph - 0.00 in Snow Light Snow
9:44 AM 17.6 °F 4.3 °F 15.8 °F 93% 29.41 in 0.5 mi ESE 12.7 mph - 0.00 in Fog , Snow Snow
9:53 AM 18.0 °F 4.2 °F 16.0 °F 92% 29.45 in 0.5 mi ESE 13.8 mph - 0.01 in Fog , Snow Snow
10:51 AM 19.4 °F 9.5 °F 17.6 °F 93% 29.34 in 1.0 mi ESE 8.1 mph - 0.03 in Snow Light Snow
10:53 AM 19.9 °F 9.3 °F 18.0 °F 92% 29.38 in 1.0 mi SE 9.2 mph - 0.03 in Snow Light Snow
11:05 AM 19.4 °F 8.6 °F 17.6 °F 93% 29.31 in 0.8 mi ESE 9.2 mph - 0.00 in Snow Light Snow
11:28 AM 21.2 °F 10.9 °F 19.4 °F 93% 29.27 in 0.5 mi ESE 9.2 mph - 0.01 in Fog , Snow Snow
11:48 AM 21.2 °F 9.5 °F 19.4 °F 93% 29.25 in 0.5 mi ESE 11.5 mph - 0.02 in Fog , Snow Light Snow
11:53 AM 21.9 °F 9.8 °F 19.9 °F 92% 29.29 in 0.8 mi SE 12.7 mph - 0.02 in Snow Light Snow
12:07 PM 21.2 °F 13.6 °F 19.4 °F 93% 29.26 in 1.0 mi South 5.8 mph - 0.00 in Snow Light Snow
12:20 PM 21.2 °F 10.1 °F 19.4 °F 93% 29.25 in 0.2 mi SSE 10.4 mph - 0.00 in Fog , Snow Heavy Snow
12:41 PM 21.2 °F 9.5 °F 21.2 °F 100% 29.22 in 1.5 mi SSE 11.5 mph - 0.01 in Snow Light Snow
12:43 PM 21.2 °F 9.5 °F 21.2 °F 100% 29.22 in 2.0 mi SSE 11.5 mph - 0.01 in Snow Light Snow
12:50 PM 23.0 °F 11.1 °F 21.2 °F 93% 29.21 in 3.0 mi SSE 12.7 mph - 0.01 in   Overcast
12:51 PM 23.0 °F 11.1 °F 21.0 °F 92% 29.26 in 3.0 mi SSE 12.7 mph - 0.01 in   Overcast
1:26 PM 24.8 °F 14.6 °F 21.2 °F 86% 29.20 in 10.0 mi South 10.4 mph - N/A   Overcast
1:53 PM 25.0 °F 13.6 °F 23.0 °F 92% 29.23 in 9.0 mi South 12.7 mph - N/A   Overcast
2:12 PM 26.6 °F 19.1 °F 24.8 °F 93% 29.19 in 1.5 mi South 6.9 mph - 0.00 in Snow Light Snow
2:14 PM 26.6 °F 18.2 °F 24.8 °F 93% 29.20 in 0.8 mi South 8.1 mph - 0.00 in Snow Light Snow
2:41 PM 26.6 °F 21.2 °F 24.8 °F 93% 29.20 in 1.5 mi South 4.6 mph - 0.01 in Snow Light Snow
2:44 PM 26.6 °F 19.1 °F 24.8 °F 93% 29.20 in 3.0 mi South 6.9 mph - 0.01 in Snow Light Snow
2:50 PM 26.6 °F 17.5 °F 24.8 °F 93% 29.20 in 2.0 mi South 9.2 mph - 0.01 in Snow Light Snow
2:53 PM 27.0 °F 16.7 °F 25.0 °F 92% 29.25 in 0.5 mi South 11.5 mph 16.1 mph 0.01 in Fog , Snow Snow
3:20 PM 28.4 °F 18.5 °F 26.6 °F 93% 29.20 in 1.0 mi South 11.5 mph 21.9 mph 0.02 in Snow Light Snow
3:22 PM 28.4 °F 19.7 °F 26.6 °F 93% 29.20 in 3.0 mi South 9.2 mph 21.9 mph 0.02 in Snow Light Snow
3:32 PM 28.4 °F 20.4 °F 26.6 °F 93% 29.20 in 8.0 mi South 8.1 mph 16.1 mph 0.02 in   Overcast
3:53 PM 28.0 °F 21.7 °F 27.0 °F 96% 29.25 in 9.0 mi South 5.8 mph - 0.02 in   Overcast
3:57 PM 28.4 °F 18.5 °F 26.6 °F 93% 29.22 in 1.5 mi SSW 11.5 mph 17.3 mph 0.00 in Snow Light Snow
4:04 PM 28.4 °F 17.0 °F 26.6 °F 93% 29.23 in 0.2 mi WSW 15.0 mph 23.0 mph 0.01 in Fog , Snow Snow
4:12 PM 30.2 °F 18.1 °F 26.6 °F 86% 29.22 in 1.0 mi WSW 18.4 mph 31.1 mph 0.01 in Snow Light Snow
4:14 PM 30.2 °F 19.8 °F 26.6 °F 86% 29.22 in 2.0 mi WSW 13.8 mph 31.1 mph 0.01 in Snow Light Snow
4:17 PM 30.2 °F 17.8 °F 24.8 °F 80% 29.22 in 6.0 mi WSW 19.6 mph 28.8 mph 0.01 in   Haze
4:29 PM 28.4 °F 15.4 °F 21.2 °F 74% 29.23 in 7.0 mi WSW 19.6 mph 32.2 mph 0.01 in   Mostly Cloudy
4:53 PM 28.0 °F 14.9 °F 19.9 °F 72% 29.28 in 10.0 mi WSW 19.6 mph 28.8 mph 0.01 in   Clear
5:53 PM 27.0 °F 13.5 °F 18.0 °F 69% 29.29 in 8.0 mi WSW 19.6 mph 31.1 mph 0.00 in   Clear
6:53 PM 25.0 °F 10.2 °F 16.0 °F 69% 29.34 in 3.0 mi WSW 21.9 mph 41.4 mph 0.00 in   Mostly Cloudy
7:39 PM 21.2 °F 3.9 °F 14.0 °F 74% 29.34 in 1.5 mi WSW 26.5 mph 43.7 mph 0.00 in Snow Light Snow
7:42 PM 21.2 °F 3.9 °F 15.8 °F 80% 29.34 in 0.8 mi WSW 26.5 mph 41.4 mph 0.00 in Snow Light Snow
7:53 PM 19.9 °F 3.5 °F 15.1 °F 81% 29.40 in 0.8 mi WSW 21.9 mph 33.4 mph 0.00 in Snow Light Snow
7:56 PM 19.4 °F 1.4 °F 12.2 °F 74% 29.36 in 1.5 mi WSW 26.5 mph 39.1 mph 0.00 in Snow Light Snow
8:06 PM 17.6 °F -1.6 °F 8.6 °F 68% 29.37 in 0.8 mi WSW 28.8 mph 46.0 mph 0.00 in Snow Light Snow
8:17 PM 15.8 °F -1.5 °F 8.6 °F 73% 29.38 in 0.8 mi West 20.7 mph 44.9 mph 0.00 in Snow Light Snow
8:25 PM 14.0 °F -3.9 °F 6.8 °F 73% 29.40 in 1.5 mi West 20.7 mph 40.3 mph 0.00 in Snow Light Snow
8:31 PM 12.2 °F -8.9 °F 3.2 °F 67% 29.41 in 2.0 mi WSW 28.8 mph 40.3 mph 0.00 in Snow Light Snow
8:48 PM 10.4 °F -9.5 °F 1.4 °F 67% 29.43 in 4.0 mi WSW 23.0 mph 33.4 mph 0.00 in   Mostly Cloudy
8:53 PM 10.0 °F -9.1 °F -0.0 °F 64% 29.49 in 3.0 mi West 20.7 mph 34.5 mph 0.00 in   Mostly Cloudy
9:28 PM 6.8 °F -16.2 °F -2.2 °F 67% 29.46 in 2.0 mi West 28.8 mph 40.3 mph 0.00 in   Mostly Cloudy
9:34 PM 6.8 °F -17.6 °F -2.2 °F 67% 29.46 in 1.8 mi WSW 33.4 mph 44.9 mph 0.00 in   Mostly Cloudy
9:44 PM 5.0 °F -19.0 °F -2.2 °F 72% 29.47 in 1.5 mi WSW 29.9 mph 44.9 mph 0.00 in   Overcast
9:53 PM 3.9 °F -20.9 °F -2.9 °F 73% 29.53 in 1.2 mi West 31.1 mph 42.6 mph 0.00 in Snow Light Snow
10:15 PM 1.4 °F -21.4 °F -5.8 °F 72% 29.50 in 1.8 mi West 23.0 mph 40.3 mph 0.00 in   Mostly Cloudy
10:21 PM 1.4 °F -20.5 °F -7.6 °F 66% 29.51 in 2.5 mi West 20.7 mph 40.3 mph 0.00 in   Scattered Clouds
10:28 PM 1.4 °F -19.9 °F -7.6 °F 66% 29.52 in 9.0 mi WSW 19.6 mph 29.9 mph 0.00 in   Partly Cloudy
10:53 PM 1.0 °F -21.4 °F -9.0 °F 63% 29.59 in 7.0 mi West 21.9 mph 29.9 mph 0.00 in   Mostly Cloudy
11:18 PM -0.4 °F -22.3 °F -9.4 °F 66% 29.54 in 9.0 mi WSW 19.6 mph 27.6 mph N/A   Overcast
11:53 PM -0.0 °F -18.7 °F -9.9 °F 63% 29.59 in 10.0 mi West 13.8 mph 20.7 mph N/A   Overcast